This demonstration page uses our WeatherBlox Daily Observations layout. Learn more.

Left ArrowRight Arrow

44.8408, -93.29828

Hourly Observations for May 2, 2021

Temp ( °F °C ) Dew Point ( °F °C ) Humidity (%) Winds ( mph kmh ) Pressure ( in mb ) Visibility ( mi km ) Precip ( " mm )
12:53 am 00:53 Partly Cloudy 72 22.2 41 5 33 33 W 3 6 29.46 998 10 16 0.00 0.00
1:53 am 01:53 Partly Cloudy 69 20.6 42 5.6 38 38 Calm 29.45 997 10 16 0.00 0.00
2:53 am 02:53 Partly Cloudy 63 17.2 45 7.2 52 52 WNW 3 6 29.45 997 10 16 0.00 0.00
3:53 am 03:53 Partly Cloudy 65 18.3 41 5 42 42 WSW 3 6 29.47 998 10 16 0.00 0.00
4:53 am 04:53 Clear 57 13.9 46 7.8 67 67 WNW 5 7 29.48 998 10 16 0.00 0.00
5:53 am 05:53 Mostly Clear 55 12.8 44 6.7 67 67 NNW 6 9 29.48 998 10 16 0.00 0.00
6:53 am 06:53 Mostly Cloudy 57 13.9 47 8.3 69 69 NNW 3 6 29.50 999 10 16 0.00 0.00
7:53 am 07:53 Cloudy 59 15 44 6.7 58 58 NNE 5 7 29.50 999 10 16 0.00 0.00
8:53 am 08:53 Cloudy 62 16.7 41 5 46 46 Calm 29.52 1000 10 16 0.00 0.00
9:53 am 09:53 Cloudy 64 17.8 43 6.1 46 46 NNE 7 11 29.52 1000 10 16 0.00 0.00
10:53 am 10:53 Cloudy 63 17.2 43 6.1 48 48 N 8 13 29.53 1000 10 16 0.00 0.00
11:53 am 11:53 Cloudy 65 18.3 44 6.7 47 47 N 10 17 29.54 1000 10 16 0.00 0.00
12:53 pm 12:53 Cloudy 65 18.3 45 7.2 49 49 NNE 10 17 29.53 1000 10 16 0.00 0.00
1:53 pm 13:53 Cloudy 66 18.9 46 7.8 49 49 ENE 14 22 29.51 999 10 16 0.00 0.00
2:53 pm 14:53 Cloudy 65 18.3 46 7.8 51 51 NE 12 19 29.53 1000 10 16 0.00 0.00
3:53 pm 15:53 Cloudy 67 19.4 45 7.2 45 45 E 7 11 29.55 1001 10 16 0.00 0.00
4:53 pm 16:53 Cloudy 67 19.4 45 7.2 45 45 E 7 11 29.55 1001 10 16 0.00 0.00
5:53 pm 17:53 Cloudy with Light Rain 65 18.3 47 8.3 52 52 NE 12 19 29.52 1000 10 16 0.00 0.00
6:53 pm 18:53 Cloudy 65 18.3 46 7.8 51 51 NE 8 13 29.52 1000 10 16 0.00 0.00
7:53 pm 19:53 Cloudy 64 17.8 48 8.9 56 56 ENE 8 13 29.52 1000 10 16 0.00 0.00
8:53 pm 20:53 Cloudy 64 17.8 47 8.3 54 54 E 8 13 29.52 1000 10 16 0.00 0.00
9:53 pm 21:53 Cloudy 65 18.3 45 7.2 49 49 ENE 6 9 29.54 1000 10 16 0.00 0.00
10:53 pm 22:53 Cloudy with Light Rain 61 16.1 50 10 67 67 N 8 13 29.54 1001 10 16 0.00 0.00
11:53 pm 23:53 Cloudy 58 14.4 52 11.1 81 81 N 7 11 29.56 1001 10 16 0.00 0.00

Powered by AerisWeather